Miscellaneous Local Product
Issued by NWS North Platte, NE

Home | Current Version | Previous Version | Graphics & Text | Print | Product List | Glossary On
Versions: 1 2 3 4 5 6 7 8 9 10 11 12 13 14 15 16 17 18 19 20 21 22 23 24 25 26 27 28 29 30 31 32 33 34 35 36 37 38 39 40 41 42 43 44 45 46 47 48 49 50
000
AXUS43 KLBF 270710
MISLBF


WESTERN AND NORTH CENTRAL NEBRASKA HOURLY WEATHER ROUNDUP
NATIONAL WEATHER SERVICE NORTH PLATTE NE
100 AM CST MON FEB 27 2017

NOTE: "FAIR" INDICATES FEW OR NO CLOUDS BELOW 12,000 FEET WITH NO
SIGNIFICANT WEATHER AND/OR OBSTRUCTIONS TO VISIBILITY.

NOTE: STATIONS NOT REPORTING VARIABLES SUCH AS SKY/WEATHER OR
PRESSURE ARE PROVIDED BY RAWS AND APRS NETWORKS AND ARE NOT UNDER
NATIONAL WEATHER SERVICE QUALITY CONTROL.

...OBSERVATIONS IN AND NEAR THE EASTERN PANHANDLE OF NEBRASKA...

CITY           SKY/WX    TMP DP  RH WIND       PRES   REMARKS
PINE RIDGE     CLOUDY     8   4  83 CALM      29.77F
CHADRON        CLOUDY     9   1  70 CALM      29.77F
ALLIANCE       CLOUDY     8   2  76 S5        29.79F WCI   0
SIDNEY         CLEAR     20  12  71 S13       29.80F WCI   7
CRESCENT LAKE    N/A     16  13  86 S6          N/A  WCI   8
$$

...OBSERVATIONS IN NORTHERN NEBRASKA AND FAR SOUTHERN SOUTH DAKOTA...

CITY           SKY/WX    TMP DP  RH WIND       PRES   REMARKS
WINNER         FAIR      24  13  62 SW14      29.84S WCI  12
VALENTINE      CLOUDY     8   3  80 W3        29.84F
THEDFORD       PTCLDY    18  12  78 CALM      29.87S
AINSWORTH      CLEAR     16  11  80 S9        29.86S WCI   4
O`NEILL        CLEAR     18  13  79 SW6       29.90S WCI  10
ORD            CLEAR     16  10  77 CALM      29.91F
BROKEN BOW     CLEAR     17  12  80 CALM      29.90F
VALENTINE NWR    N/A     13   8  80 S7          N/A  WCI   3
BUTTE            N/A     18  12  78 SW5         N/A  WCI  11
HALSEY           N/A     20  10  65 S3          N/A
CHAMBERS         N/A     17   8  69 CALM        N/A
EWING            N/A     20  16  83 CALM        N/A
$$

...OBSERVATIONS IN SOUTHWEST NEBRASKA AND FAR NORTHEAST COLORADO...

CITY           SKY/WX    TMP DP  RH WIND       PRES   REMARKS
HOLYOKE        FAIR      21  14  73 S7        29.85S WCI  13
IMPERIAL       CLEAR     21  11  65 SE3       29.86F
OGALLALA       CLOUDY    19  12  76 CALM      29.86S
NORTH PLATTE   CLEAR     17  10  74 E3        29.88F
MCCOOK         CLEAR     20  10  65 CALM      29.89F
LEXINGTON      CLEAR     19  15  82 NE3       29.91F
STAPLETON        N/A     15  11  82 CALM        N/A
GOTHENBURG       N/A     19  11  70 CALM        N/A
CALLAWAY         N/A     20  13  73 SE3         N/A
$$

...OBSERVATIONS IN CENTRAL LINCOLN COUNTY AREA...

CITY           SKY/WX    TMP DP  RH WIND       PRES   REMARKS
N.P. AIRPORT   CLEAR     17  10  74 E3        29.88F
N.P. DOWNTOWN    N/A     18  11  74 W3          N/A
N.P. SOUTHEAST   N/A     20  15  80 CALM        N/A
N.P. HILLCREST   N/A     26  14  60 CALM        N/A
$$

...SOME OBSERVATIONS FROM AROUND THE REGION...

CITY           SKY/WX    TMP DP  RH WIND       PRES   REMARKS
LARAMIE        CLOUDY    18   2  49 S13       29.66F WCI   5
CHEYENNE       CLOUDY    13   5  70 W5        29.72F WCI   5
DENVER         CLEAR     15   4  61 S8        29.74F WCI   4
AKRON          CLEAR     19  10  68 SE13      29.78F WCI   6
SCOTTSBLUFF    CLOUDY    15   6  67 E10       29.79F WCI   2
RAPID CITY     CLOUDY    26  14  60 S6        29.74F WCI  19
BISMARCK       CLOUDY    12   9  87 SE3       29.86R
PIERRE         PTCLDY    25  14  63 W8        29.81S WCI  16
SIOUX FALLS    CLEAR     28  21  75 SW9       29.90F WCI  19
OMAHA          CLEAR     28  22  78 S3        30.00F
GRAND ISLAND   CLEAR     27  16  63 S7        29.94F WCI  19
KANSAS CITY    CLEAR     28  27  96 S9        30.02S WCI  19
WICHITA        CLEAR     36  27  69 E7        29.97R WCI  30
OKLAHOMA CITY  MOCLDY    41  33  73 E8        29.92F
DALLAS         CLOUDY    59  56  89 NE6       29.90R
AMARILLO       CLEAR     37  21  52 SW10      29.88R WCI  30
DODGE CITY     CLEAR     24  17  74 SE7       29.90S WCI  16
HAYS           PTCLDY    25   9  50 CALM      29.93F
GOODLAND       CLEAR     22   8  55 S15       29.84R WCI   9
$$




USA.gov is the U.S. government's official web portal to all federal, state and local government web resources and services.